Regional Weather Roundup
Issued by NWS Albany, NY

Home | Current Version | Previous Version | Text Only | Print | Product List | Glossary On
Versions: 1 2 3 4 5 6 7 8 9 10 11 12 13 14 15 16 17 18 19 20 21 22 23 24 25 26 27 28 29 30 31 32 33 34 35 36 37 38 39 40 41 42 43 44 45 46 47 48 49 50
000
ASUS41 KALY 262010
RWRALY

NEW YORK STATE HOURLY WEATHER ROUNDUP
NATIONAL WEATHER SERVICE ALBANY NY
300 PM EST THU FEB 26 2015

NOTE: "FAIR" INDICATES FEW OR NO CLOUDS BELOW 12,000 FEET WITH NO
SIGNIFICANT WEATHER AND/OR NO OBSTRUCTIONS TO VISIBILITY.

NYZ032-033-038>043-046>054-057>066-NYZ062>081-262100-
EAST


CITY           SKY/WX    TMP DP  RH WIND       PRES   REMARKS
ALBANY         PTSUNNY   19  -4  36 N8        30.02F WCI   9
GLENS FALLS    CLOUDY    16  -6  37 E10       30.03F WCI   4
POUGHKEEPSIE   MOSUNNY   22   9  57 N12       29.98R WCI  10
NEWBURGH       CLOUDY    19  14  79 N12       29.96  WCI   7
MONTGOMERY     CLOUDY    21  12  68 NE8       29.95R WCI  11
WHITE PLAINS   PTSUNNY   25  13  60 N9        29.91R WCI  15
ISLIP          CLOUDY    24  15  68 N15       29.91R WCI  11
NEW YORK CITY  CLOUDY    26  16  65 N9G17     29.95R WCI  17
CENTRAL PARK   CLOUDY    26  15  63 NE6       29.96R WCI  19
$$

NYZ005>009-017-018-044>046-055-056-262100-
CENTRAL


CITY           SKY/WX    TMP DP  RH WIND       PRES   REMARKS
FULTON         PTSUNNY   15  -3  44 N10       30.07R WCI   2
SYRACUSE       CLOUDY    18   1  46 NW5       30.03F WCI  11
ROME           MIX PCPN  17   0  47 NW8       30.03F WCI   7
ELMIRA         CLOUDY    18   8  65 NE12      29.99R HAZE    WCI   5
BINGHAMTON     CLOUDY    16   5  62 N6        29.90R WCI   7
MONTICELLO     SUNNY     21  16  79 NW7       29.88R WCI  13
$$

NYZ026>034-041>043-262100-
NORTH


CITY           SKY/WX    TMP DP  RH WIND       PRES   REMARKS
WATERTOWN      PTSUNNY   14  -6  40 N12       30.10S WCI   0
FORT DRUM      NOT AVBL
MASSENA        MOSUNNY    9 -11  40 N6        30.14F WCI  -1
SARANAC LAKE   CLOUDY    11 -10  38 VRB5      29.90F WCI   3
PLATTSBURGH    MOSUNNY    9  -8  46 NE8       30.10F WCI  -3
$$

NYZ001>004-010>016-019>021-262100-
WEST


CITY           SKY/WX    TMP DP  RH WIND       PRES   REMARKS
NIAGARA FALLS  LGT SNOW  15   8  73 NE10      30.08R WCI   2
BUFFALO        LGT SNOW  15   4  61 NE6       30.06R WCI   6
DUNKIRK        LGT SNOW  12   7  80 N7        30.08S WCI   1
JAMESTOWN      CLOUDY    10   5  79 N10       29.94S VSB 1   WCI  -3
WELLSVILLE     LGT SNOW  16   8  71 N7        29.90R WCI   6
ROCHESTER      CLOUDY    13   1  59 N10       30.09R WCI   0
PENN YAN       PTSUNNY   16   0  49 VRB6      30.02R WCI   7
$$

             KEY
       WCI = WIND CHILL INDEX
       VSB = VISIBILITY
       HX  = HEAT INDEX
$$


USA.gov is the U.S. government's official web portal to all federal, state and local government web resources and services.